Location: *
(51.5080°N, 0.1247°W)
Time: 17:49:56
(UTC+00:00)

Daily predictions for brighter satellites

Satellite Brightness Start Highest point End
(mag) Time Altitude Azimuth Time Altitude Azimuth Time Altitude Azimuth
USA 234 3.3 18:21:27 10° ENE 18:28:03 87° SSE 18:34:39 10° WSW
CSL-04 Rocket 4.0 18:23:49 10° SSE 18:29:21 77° WSW 18:34:58 10° NNW
Cosmos 407 Rocket 3.5 18:24:55 10° NNW 18:30:04 71° ENE 18:35:10 10° SSE
Cosmos 2237 Rocket 2.2 18:27:53 10° NNW 18:33:38 83° ENE 18:39:21 10° SSE
Cosmos 1437 Rocket 4.0 18:33:12 10° NNE 18:36:12 22° ENE 18:39:11 10° ESE
Cosmos 1441 Rocket 3.1 18:32:41 10° S 18:36:27 75° E 18:40:13 10° NNE
Cosmos 2333 Rocket 3.6 18:31:07 10° NW 18:36:30 43° WSW 18:41:52 10° S
USA 186 3.2 18:34:24 10° ESE 18:37:11 23° ENE 18:39:56 10° NNE
ISS -2.5 18:34:51 10° SSW 18:37:40 26° SSE 18:40:30 10° E
Cosmos 2056 Rocket 4.1 18:33:38 10° SSE 18:38:31 36° ESE 18:43:24 10° NE
ERBS 2.3 18:36:12 10° WNW 18:39:36 85° NNE 18:43:00 10° ESE
Cosmos 1939 Rocket 2.7 18:36:17 10° SSE 18:40:07 70° ENE 18:44:00 10° N
USA 116 3.5 18:36:56 10° NNE 18:40:50 88° ESE 18:44:17 10° SSW
Cosmos 1140 Rocket 3.5 18:38:07 10° NNW 18:43:18 63° ENE 18:48:24 10° SE
Timation 2 Rocket 4.4 18:37:06 10° SW 18:43:36 71° NW 18:49:51 10° NNE
Cosmos 1461 3.7 18:39:52 10° WSW 18:43:45 50° NW 18:47:38 10° NE
Cosmos 1980 3.9 18:38:23 10° NNW 18:44:03 81° WSW 18:49:43 10° SSE
ATLAS 2AS CENTAUR R/B 4.2 18:39:50 10° NW 18:46:56 42° WSW 18:53:30 10° S
Cosmos 1544 3.2 18:45:50 10° SSW 18:49:25 79° W 18:53:04 10° N
Cosmos 1624 Rocket 4.3 18:44:37 10° S 18:49:29 43° ESE 18:54:24 10° NE
Cosmos 1954 Rocket 4.1 18:48:44 10° NNW 18:53:55 60° ENE 18:59:02 10° SE
Okean 1 Rocket 3.1 18:50:05 10° S 18:54:26 85° W 18:58:52 10° N
Cosmos 2219 Rocket 4.2 18:57:41 10° NW 19:02:26 29° WSW 19:07:10 10° SSW
EO 1 Delta rocket 4.2 18:56:28 10° SSE 19:02:28 66° ENE 19:07:25 10° N
Cosmos 1707 3.3 19:00:17 10° NNW 19:04:10 61° W 19:08:02 10° S
Cosmos 2341 Rocket 4.0 19:00:32 10° N 19:06:49 83° E 19:13:02 10° SSE
Cosmos 1626 4.1 19:05:21 10° NNE 19:07:11 13° ENE 19:07:34 13° ENE
SL-16 R/B 2.3 19:01:44 10° NNW 19:07:25 65° ENE 19:12:43 12° SE
Cosmos 2181 Rocket 4.2 19:01:55 10° SSE 19:07:57 51° E 19:14:07 10° NNE
GEOS 3 Rocket 3.6 19:05:53 11° SE 19:10:55 89° SW 19:16:06 10° NW
Meteor 1-4 Rocket 2.5 19:09:36 10° NNW 19:13:09 82° W 19:16:38 10° S
Cosmos 2366 rocket 4.1 19:10:08 10° N 19:16:27 59° ENE 19:22:43 10° SSE
Cosmos 2218 Rocket 4.0 19:12:25 10° N 19:18:48 65° ENE 19:25:03 10° SSE
Cosmos 1371 Rocket 4.0 19:16:35 10° SSW 19:21:56 86° ESE 19:27:20 10° NNE
GP-B 4.4 19:18:18 10° N 19:22:33 44° W 19:26:45 10° SSW
Cosmos 1733 4.5 19:23:18 22° E 19:23:18 22° E 19:25:58 10° NE
SL-8 Rocket 3.9 19:17:57 10° N 19:24:11 81° E 19:30:20 10° SSE
RESURS DK-1 2.8 19:20:20 10° NNW 19:24:20 46° NE 19:26:21 25° ESE
Cosmos 1892 Rocket 3.8 19:20:25 10° NNW 19:24:52 73° W 19:29:16 10° S
Cosmos 2082 4.0 19:19:35 10° S 19:24:58 44° ESE 19:30:22 10° NE
SPOT 3 Rocket 3.5 19:19:59 10° SSE 19:25:06 73° ENE 19:30:17 10° NNW
ARGOS 3.3 19:20:36 13° SE 19:25:18 55° ENE 19:30:34 10° N
Meteor 2-5 Rocket 3.8 19:21:06 10° NNW 19:26:59 81° ENE 19:32:55 10° SSE
FREGAT/IRIS 3.0 19:24:14 10° S 19:27:00 57° W 19:29:48 10° NNW
Resurs 01 Rocket 2.4 19:26:29 24° ESE 19:28:23 34° ENE 19:32:26 10° N
Cosmos 676 Rocket 4.2 19:24:04 10° NNW 19:29:20 73° WSW 19:34:31 10° SSE
Cosmos 1452 Rocket 3.9 19:27:44 10° S 19:32:32 38° ESE 19:37:22 10° NE
CZ-2C R/B 3.6 19:30:52 22° SE 19:34:05 45° ENE 19:39:26 10° N
Cosmos 1959 Rocket 4.4 19:29:41 10° N 19:35:52 81° E 19:42:04 10° SSE
MetOp-A 4.4 19:34:27 23° SE 19:37:32 48° ENE 19:42:40 10° N
CZ-2C R/B 3.5 19:33:15 10° NNE 19:37:43 71° ESE 19:42:08 10° S
Cosmos 2227 Rocket 2.1 19:33:06 10° SSW 19:38:46 79° ESE 19:44:28 10° NNE
Cosmos 2084 Rocket 3.4 19:34:24 10° SW 19:38:51 81° SE 19:43:21 10° NE
SL-14 R/B 4.0 19:36:40 10° N 19:40:18 33° ENE 19:40:46 32° E
SJ-6B 3.1 19:41:09 11° S 19:45:02 73° WSW 19:49:06 10° NNW
Cosmos 2219 3.7 19:40:31 10° SW 19:46:14 63° NW 19:51:57 10° NNE
Cosmos 1766 3.1 19:43:58 10° S 19:47:52 69° E 19:51:47 10° NNE
Cosmos 2297 Rocket 2.2 19:43:05 10° SSW 19:48:46 87° WNW 19:54:28 10° NNE
ADEOS Rocket 3.6 19:41:32 10° NNE 19:48:52 58° E 19:56:31 10° S
CZ-4C R/B 3.9 19:46:02 10° NW 19:51:39 32° NNE 19:56:54 14° ENE
H-2A R/B 1.9 19:49:53 17° SSE 19:53:47 88° WSW 19:58:56 10° NNW
SL-8 R/B 4.1 19:53:28 10° W 19:58:08 52° SSW 19:59:31 38° SE
Cosmos 405 Rocket 3.9 19:57:02 10° SW 20:00:33 41° WNW 20:04:09 10° N
SL-08 RB Rocket 3.6 19:58:56 32° SSE 20:01:04 78° ENE 20:05:45 10° NNW
Cosmos 1850 Rocket 3.9 19:57:15 10° NNW 20:02:29 90° ENE 20:04:53 33° SSE
Cosmos 1674 3.3 20:00:18 10° NNW 20:03:57 53° W 20:06:06 22° SSW
Cosmos 1544 Rocket 3.8 20:01:23 10° SSW 20:05:51 70° WNW 20:10:19 10° N
Cosmos 1455 Rocket 3.7 20:01:28 10° SSW 20:05:51 58° WNW 20:10:17 10° N
Cosmos 1943 3.6 20:00:44 10° NNW 20:06:15 47° NE 20:07:51 37° E
Lacrosse 5 rocket 1.0 20:03:41 10° WSW 20:07:22 85° NNW 20:08:06 57° NE
USA 186 3.8 20:04:58 10° SSW 20:07:59 30° W 20:11:03 10° NNW
USA 234 3.7 20:05:27 15° ENE 20:10:55 59° N 20:17:21 10° W
BREEZE M DEB (TANK) 2.4 20:09:34 10° W 20:12:07 61° S 20:12:29 57° SSE
Cosmos 1437 Rocket 4.1 20:09:05 10° NNW 20:12:37 37° W 20:15:10 16° SSW
ISS -3.2 20:10:47 10° WSW 20:13:26 52° WSW 20:13:26 52° WSW
SPOT 5 4.3 20:14:48 24° ENE 20:14:48 24° ENE 20:18:49 10° N
Cosmos 1934 Rocket 4.3 20:13:11 10° N 20:19:06 47° ENE 20:20:15 42° ESE
ERS-1 Rocket 3.9 20:20:57 32° ENE 20:20:57 32° ENE 20:25:20 10° N
Cosmos 1626 Rocket 4.2 20:17:51 10° NNW 20:22:05 53° W 20:24:09 27° SSW
Cosmos 1420 Rocket 4.1 20:16:48 10° SSW 20:22:08 80° WNW 20:27:30 10° NNE
Cosmos 1470 4.4 20:26:31 25° NNE 20:26:31 25° NNE 20:28:20 10° NNE
Terra 3.5 20:25:43 20° NE 20:25:43 20° NE 20:28:33 10° N
Cosmos 1825 Rocket 3.7 20:25:11 10° N 20:29:01 57° NE 20:29:01 57° NE
Cosmos 1271 Rocket 4.5 20:28:14 10° N 20:30:01 22° NNE 20:30:01 22° NNE
Meteor 1-21 Rocket 4.2 20:28:30 10° N 20:34:26 72° ENE 20:35:38 56° SE
USA 245 4.3 20:36:02 56° ESE 20:36:45 61° ENE 20:41:58 10° N
Spot 2 Rocket 3.3 20:37:40 69° SSE 20:38:18 86° ENE 20:43:23 10° NNW
Cosmos 1758 Rocket 3.6 20:36:49 10° N 20:40:44 72° N 20:40:44 72° N
Cosmos 1626 2.9 20:39:14 10° NNW 20:42:09 50° NW 20:42:09 50° NW
CZ-2C R/B 3.2 20:39:21 10° NNE 20:43:38 43° ENE 20:43:38 43° ENE
Cosmos 1603 3.7 20:41:37 10° NNW 20:47:19 79° WSW 20:48:13 63° S
SL-16 R/B 4.0 20:46:28 10° NW 20:51:07 26° WSW 20:54:38 15° SSW
MetOp-B 4.1 20:51:26 69° S 20:52:05 82° WSW 20:57:30 10° NNW
Lacrosse 5 4.2 20:47:21 10° SSW 20:47:45 12° SSW 20:47:45 12° SSW
SPOT 1/Viking Rocket 3.8 20:54:02 56° NE 20:54:02 56° NE 20:58:38 10° N
Nadezhda 3 Rocket 4.0 20:55:43 38° SSW 20:58:18 81° WNW 21:04:35 10° N
Cosmos 1953 4.4 21:01:12 20° NNE 21:01:12 20° NNE 21:02:33 10° NNE
RESURS DK-1 4.2 20:58:47 10° NW 21:02:10 24° WSW 21:02:15 24° WSW
Cosmos 2285 Rocket 4.2 20:56:40 10° NNW 21:03:00 54° ENE 21:03:17 53° ENE
Resurs 01 Rocket 3.0 21:04:04 31° WSW 21:04:53 33° W 21:08:56 10° NNW
Cosmos 1605 Rocket 3.9 21:00:22 10° N 21:06:46 68° ENE 21:06:49 68° E
DMSP B5D2-2 4.2 21:03:26 10° NNE 21:08:44 74° WNW 21:09:10 70° WSW
Cosmos 1821 Rocket 4.4 21:03:07 10° NNW 21:09:07 57° W 21:10:57 42° SW
CZ-2C R/B 4.5 21:11:56 26° SW 21:14:04 35° W 21:19:12 10° NNW
Cosmos 2082 Rocket 4.4 21:16:48 10° N 21:19:57 15° NNE 21:21:51 13° NE
Cosmos 2227 Rocket 4.2 21:18:40 10° W 21:23:26 27° NW 21:28:17 10° NNE
Cosmos 2297 Rocket 4.4 21:29:07 10° W 21:33:38 24° NW 21:38:11 10° NNE
Cosmos 2263 Rocket 3.7 21:43:23 27° NNE 21:43:23 27° NNE 21:45:53 10° NNE
CZ-4C R/B 3.1 21:34:50 10° NW 21:41:32 58° NE 21:42:04 57° NE
Lacrosse 5 rocket 4.1 21:43:19 10° WNW 21:43:45 13° WNW 21:43:45 13° WNW
Cosmos 1943 4.3 21:45:01 10° NW 21:49:40 37° W 21:49:40 37° W
Cosmos 1833 Rocket 4.5 21:47:23 10° NNW 21:51:35 22° NE 21:51:35 22° NE
SPOT 5 4.1 21:54:02 41° NW 21:54:02 41° NW 21:57:29 10° NNW
USA 234 3.5 21:52:48 57° NE 21:53:32 60° N 21:59:58 10° WNW
COSMOS 2406 4.5 21:50:32 10° NNW 21:54:52 34° NNE 21:54:52 34° NNE
ERS-1 Rocket 4.3 22:00:57 36° WNW 22:00:57 36° WNW 22:04:25 10° NNW
Terra 3.5 22:04:36 31° NNW 22:04:36 31° NNW 22:07:09 10° NNW
CZ-2C R/B 4.1 22:19:57 10° N 22:24:55 34° WNW 22:25:09 34° WNW
SJ 16-02 4.4 22:50:41 10° NNE 22:51:02 11° NNE 22:51:02 11° NNE
Cosmos 2082 Rocket 3.9 23:00:19 10° NNW 23:03:40 30° N 23:03:40 30° N
Cosmos 2263 Rocket 4.0 23:25:03 26° NW 23:25:03 26° NW 23:29:31 10° NNE
CZ-4C R/B 4.0 23:23:24 10° NW 23:27:13 34° WNW 23:27:13 34° WNW
Cosmos 2278 Rocket 4.3 23:54:10 20° NE 23:54:10 20° NE 23:55:55 10° NE
